User: anonymous
Location: Caltech
(34.1382°N, 118.1253°W)
Time: 22:57:21
(UTC-07:00)
Language:

NOSS 3-2 (A) - Orbit

View from above orbital plane
View from above orbital plane
View from above satellite
View from above satellite

Ground track
Ground track

The orbit data is extracted from the following two-line orbital elements,

1 28095U 03054A   14197.95088040 0.00000000  00000-0  00000-0 0    05
2 28095  63.4290 152.5417 0213000 358.0465   1.9535 13.41286189    08
Epoch (UTC): 16 July 2014 22:49:16
Eccentricity: 0.0213000
inclination: 63.4290°
perigee height: 945 km
apogee height: 1264 km
right ascension of ascending node: 152.5417°
argument of perigee: 358.0465°
revolutions per day: 13.41286189
mean anomaly at epoch: 1.9535°
orbit number at epoch: 0

The dashed part of the orbit path shows where the satellite is in the earth's shadow,  

DLR